Home   Weather   Bhinga   Past weeks

Flag for India Past Weather in Bhinga, Uttar Pradesh, India — Yesterday and Last 2 Weeks

73 °F


Feels Like: 76 °F
Forecast: 58 / 92 °F
Wind: No wind

Location: Lucknow / Amausi

Current Time: Oct 26, 2016 at 12:45:36 AM

Latest Report: Oct 26, 2016 at 12:00 AM

Visibility: 2 mi

Pressure: 29.77 "Hg

Humidity: 65%

Dew Point: 61 °F

Location of BhingaLocation

Past Weather in Bhinga — Graph


Bhinga Temperature Yesterday

Maximum temperature yesterday: 93 °F (at 2:30 PM)
Minimum temperature yesterday: 66 °F (at 6:00 AM)
Average temperature yesterday: 80 °F

High & Low Weather Summary for the Past Weeks

High95 °F (Oct 11, 1:30 PM)100% (Oct 15, 6:30 AM)29.89 "Hg (Oct 15, 6:30 AM)
Low66 °F (Oct 14, 5:30 AM)28% (Oct 24, 2:30 PM)29.65 "Hg (Oct 11, 5:00 AM)
Average81 °F60%29.75 "Hg
* Reported Oct 10 11:00 PM — Oct 25 11:00 PM, Bhinga, Weather by CustomWeather, © 2016

Note: Actual official high and low records may vary slightly from our data, if they occured in-between our weather recording intervals... More about our weather records


Bhinga Weather History for the Previous 24 Hours

Scroll right to see more
Time TempWeatherWind HumidityBarometerVisibility
11:00 PM
Tue, Oct 25
75 °FHaze.No wind65%29.80 "Hg2 mi
10:00 PM77 °FHaze.No wind57%29.80 "Hg2 mi
9:00 PM77 °FHaze.No wind61%29.77 "Hg2 mi
8:30 PM75 °FHaze.No wind65%29.77 "Hg2 mi
8:00 PM77 °FHaze.No wind61%29.77 "Hg2 mi
7:30 PM79 °FHaze.No wind61%29.74 "Hg2 mi
7:00 PM79 °FHaze.2 mph58%29.74 "Hg2 mi
6:30 PM81 °FHaze.2 mph58%29.74 "Hg2 mi
6:00 PM82 °FHaze.3 mph51%29.74 "Hg2 mi
5:30 PM86 °FHaze.3 mph49%29.71 "Hg2 mi
5:00 PM88 °FHaze.2 mph43%29.71 "Hg2 mi
4:30 PM90 °FHaze.2 mph38%29.71 "Hg2 mi
4:00 PM91 °FHaze.2 mph36%29.71 "Hg2 mi
3:30 PM93 °FHaze.6 mph32%29.71 "Hg2 mi
3:00 PM93 °FHaze.8 mph34%29.71 "Hg2 mi
2:30 PM93 °FHaze.6 mph32%29.71 "Hg2 mi
2:00 PM91 °FHaze.3 mph28%29.71 "Hg2 mi
1:30 PM91 °FHaze.3 mph30%29.74 "Hg2 mi
12:30 PM90 °FHaze.2 mph31%29.77 "Hg2 mi
12:00 PM90 °FHaze.2 mph31%29.77 "Hg2 mi
11:30 AM90 °FHaze.2 mph31%29.77 "Hg2 mi
11:00 AM88 °FHaze.2 mph38%29.80 "Hg2 mi
10:30 AM86 °FHaze.2 mph40%29.80 "Hg2 mi
9:30 AM81 °FHaze.No wind54%29.80 "Hg2 mi
9:00 AM73 °FHaze.No wind74%29.80 "Hg1 mi
8:00 AM68 °FFog.No wind88%29.77 "Hg1 mi
7:30 AM66 °FFog.2 mph94%29.77 "Hg1 mi
7:00 AM66 °FFog.2 mph88%29.77 "Hg1 mi
6:30 AM66 °FFog.No wind88%29.74 "Hg1 mi
6:00 AM66 °FFog.No wind88%29.74 "Hg1 mi
5:30 AM68 °FHaze.No wind88%29.71 "Hg1 mi
5:00 AM70 °FHaze.No wind78%29.71 "Hg1 mi
4:00 AM72 °FHaze.No wind73%29.71 "Hg1 mi
3:00 AM72 °FHaze.No wind73%29.71 "Hg1 mi
2:00 AM72 °FHaze.No wind73%29.71 "Hg1 mi
1:00 AM73 °FHaze.No wind69%29.74 "Hg1 mi
12:00 AM73 °FHaze.No wind69%29.74 "Hg1 mi
Weather by CustomWeather, © 2016

See weather overviewHow to use our weather pages